Ardmore, OK

5:45 AM CDT on April 24, 2017 (GMT -0500)
Ardmore Municipal

Weather History for KADM - March, 2012

Change the Weather History Date:

Tuesday, March 6, 2012

  Actual Average Record
Temperature  
Mean Temperature 58 °F -  
Max Temperature 66 °F 58 °F 86 °F (2009)
Min Temperature 51 °F 39 °F 19 °F (2015)
Degree Days  
Heating Degree Days 6    
Growing Degree Days 8 (Base 50)    
Moisture  
Dew Point 44 °F    
Average Humidity 62    
Maximum Humidity 88    
Minimum Humidity 44    
Precipitation  
Precipitation 0.00 in - - ()
Sea Level Pressure  
Sea Level Pressure 30.07 in    
Wind  
Wind Speed 9 mph (SSE)    
Max Wind Speed 22 mph    
Max Gust Speed 37 mph    
Visibility 10 miles    
Events      
Averages and records for this station are not official NWS values.
T = Trace of Precipitation, MM = Missing Value Source: NWS Daily Summary

Daily Weather History Graph

Daily Weather History Graph

Search for Another Location

Airport or City:

Trip Planner

Search our weather history database for the weather conditions in past years. The results will help you decide how hot, cold, wet, or windy it might be!

Date:

Astronomy

Mar. 06, 2012 Rise Set
Actual Time 6:49 AM CST 6:28 PM CST
Civil Twilight 6:24 AM CST 6:54 PM CST
Nautical Twilight 5:55 AM CST 7:23 PM CST
Astronomical Twilight 5:26 AM CST 7:52 PM CST
Moon 4:59 PM CST (3/6) 5:22 AM CST (3/6)
Length of Visible Light 12h 29m
Length of Day
11h 39m
Waxing Gibbous, 96% of the Moon is Illuminated
Mar 6
Waxing Gibbous
Mar 8
Full
Mar 14
Last Quarter
Mar 22
New
Mar 30
First Quarter

Hourly Weather History & Observations

Time (CST) Temp. Dew Point Humidity Pressure Visibility Wind Dir Wind Speed Gust Speed Precip Events Conditions
12:15 AM 57.2 °F 39.2 °F 51% 30.15 in 10.0 mi SE 5.8 mph - N/A   Clear
12:35 AM 55.4 °F 39.2 °F 54% 30.15 in 10.0 mi SE 4.6 mph - N/A   Clear
12:55 AM 55.4 °F 39.2 °F 54% 30.15 in 10.0 mi SE 5.8 mph - N/A   Clear
1:15 AM 55.4 °F 41.0 °F 58% 30.14 in 10.0 mi SE 4.6 mph - N/A   Clear
1:35 AM 55.4 °F 41.0 °F 58% 30.14 in 10.0 mi SSE 5.8 mph - N/A   Clear
1:55 AM 53.6 °F 41.0 °F 62% 30.14 in 10.0 mi South 8.1 mph - N/A   Clear
2:15 AM 55.4 °F 41.0 °F 58% 30.13 in 10.0 mi South 9.2 mph - N/A   Clear
2:35 AM 55.4 °F 39.2 °F 54% 30.11 in 10.0 mi South 9.2 mph - N/A   Clear
2:55 AM 55.4 °F 37.4 °F 51% 30.10 in 10.0 mi SSE 8.1 mph - N/A   Clear
3:15 AM 53.6 °F 37.4 °F 54% 30.10 in 10.0 mi SSE 8.1 mph - N/A   Clear
3:35 AM 55.4 °F 35.6 °F 47% 30.09 in 10.0 mi SSE 8.1 mph - N/A   Clear
3:55 AM 55.4 °F 33.8 °F 44% 30.09 in 10.0 mi SSE 8.1 mph - N/A   Clear
4:35 AM 53.6 °F 35.6 °F 51% 30.09 in 10.0 mi SSE 8.1 mph - N/A   Clear
4:55 AM 55.4 °F 37.4 °F 51% 30.09 in 10.0 mi South 9.2 mph - N/A   Clear
5:15 AM 53.6 °F 37.4 °F 54% 30.10 in 10.0 mi South 10.4 mph - N/A   Clear
5:35 AM 51.8 °F 41.0 °F 67% 30.10 in 10.0 mi SSE 9.2 mph - N/A   Clear
5:55 AM 51.8 °F 41.0 °F 67% 30.09 in 10.0 mi SSE 9.2 mph - N/A   Clear
6:55 AM 51.8 °F 48.2 °F 88% 30.10 in 10.0 mi SSE 9.2 mph - N/A   Clear
7:55 AM 57.2 °F 51.8 °F 82% 30.10 in 10.0 mi South 13.8 mph 23.0 mph N/A   Overcast
9:55 AM 60.8 °F 53.6 °F 77% 30.10 in 10.0 mi South 13.8 mph 20.7 mph N/A   Scattered Clouds
10:55 AM 62.6 °F 53.6 °F 72% 30.09 in 10.0 mi South 19.6 mph 27.6 mph N/A   Overcast
12:55 PM 66.2 °F 53.6 °F 64% 30.03 in 10.0 mi South 12.7 mph 36.8 mph N/A   Mostly Cloudy
9:15 PM 62.6 °F 51.8 °F 68% 29.95 in 10.0 mi SSE 12.7 mph 17.3 mph N/A   Clear
9:35 PM 62.6 °F 51.8 °F 68% 29.95 in 10.0 mi SSE 11.5 mph - N/A   Clear
9:55 PM 62.6 °F 51.8 °F 68% 29.96 in 10.0 mi SSE 17.3 mph 20.7 mph N/A   Clear
10:15 PM 62.6 °F 51.8 °F 68% 29.96 in 10.0 mi SSE 15.0 mph 21.9 mph N/A   Scattered Clouds
10:55 PM 64.4 °F 51.8 °F 64% 29.96 in 10.0 mi South 13.8 mph 20.7 mph N/A   Overcast
11:15 PM 64.4 °F 51.8 °F 64% 29.96 in 10.0 mi South 15.0 mph 23.0 mph N/A   Overcast
11:35 PM 64.4 °F 51.8 °F 64% 29.95 in 10.0 mi South 13.8 mph 27.6 mph N/A   Mostly Cloudy
11:55 PM 64.4 °F 51.8 °F 64% 29.95 in 10.0 mi South 21.9 mph 28.8 mph N/A   Mostly Cloudy